Location: Oregon Star Party
(44.2935°N, 120.1332°W)
Time: 09:03:34
(UTC-07:00)

Amateur Radio Satellites - All Passes

Search period start: 28 March 2015 08:33
Search period end: 29 March 2015 08:33
Location: Oregon Star Party, 44.2935°N, 120.1332°W

Satellite Date Start Highest point End Downlink Frequencies (MHz)
Time Altitude Azimuth
SEEDS 28 Mar 08:42:16 08:43:12 11° 86° (E) 08:44:23 437.485
PHONESAT 2.4 28 Mar 08:44:44 08:48:04 40° 171° (S) 08:51:25 2401.200-2431.200
DOVE 4 28 Mar 08:55:22 08:57:47 15° 90° (E) 09:00:27 437.250
GOMX 1 28 Mar 08:59:31 09:02:56 24° 94° (E) 09:06:33 467.674
COMPASS 1 28 Mar 09:05:19 09:07:55 16° 90° (E) 09:10:41 437.405
DANDE 28 Mar 09:06:57 09:10:37 45° 261° (W) 09:15:26 436.750
CANX-2 28 Mar 09:30:04 09:34:15 47° 98° (E) 09:38:25 2200.000
BRITE-PL 28 Mar 09:43:51 09:48:01 76° 285° (WNW) 09:52:20 437.365/2234.400
CUTE 1.7 + AOD 2 28 Mar 09:44:08 09:48:26 61° 100° (E) 09:52:41 437.475
HO-68 28 Mar 09:49:15 09:56:26 66° 103° (ESE) 10:03:35 435.675
VERMONT LUNAR 28 Mar 09:52:57 09:56:03 35° 191° (SSW) 09:59:10 437.305
BEESAT 3 28 Mar 09:55:06 09:56:40 12° 110° (ESE) 09:58:27 437.485
UNISAT 6 28 Mar 09:55:31 09:59:01 26° 67° (ENE) 10:02:37 437.425
POPSAT HIP 1 28 Mar 09:58:01 10:00:20 15° 64° (ENE) 10:02:48 437.405
DELFI C3 28 Mar 10:01:45 10:04:49 20° 92° (E) 10:07:57 145.870
BUGSAT 1 28 Mar 10:04:45 10:06:27 13° 63° (ENE) 10:08:19 437.445
TIGRISAT 28 Mar 10:06:06 10:09:50 31° 69° (ENE) 10:13:41 435.000
NANOSAT C BR1 28 Mar 10:08:30 10:11:25 19° 65° (ENE) 10:14:26 145.865
DX 1 28 Mar 10:09:44 10:11:38 13° 89° (E) 10:13:44 434.975-435.025
POLYITAN 1 28 Mar 10:11:22 10:14:27 20° 66° (ENE) 10:17:38 437.675
AAUSAT CUBESAT 2 28 Mar 10:13:34 10:17:50 77° 102° (ESE) 10:22:04 437.432
SEEDS 28 Mar 10:15:19 10:19:37 73° 285° (WNW) 10:23:52 437.485
HUMSAT D 28 Mar 10:17:44 10:18:21 10° 87° (E) 10:19:14 437.325/437.525
CINEMA 3 28 Mar 10:20:19 10:24:39 62° 101° (E) 10:29:10 145.822/145.860
PHONESAT 2.4 28 Mar 10:22:47 10:26:09 40° 188° (S) 10:29:29 2401.200-2431.200
Oscar 11 28 Mar 10:29:28 10:33:45 53° 100° (E) 10:38:02 145.826/435.025
DOVE 4 28 Mar 10:31:45 10:35:56 53° 287° (WNW) 10:40:17 437.250
ANTELSAT 28 Mar 10:35:10 10:39:23 66° 74° (ENE) 10:43:41 437.575/2403.000
GOMX 1 28 Mar 10:37:24 10:41:11 32° 290° (WNW) 10:45:03 467.674
FUNcube-1 28 Mar 10:37:33 10:41:32 34° 96° (E) 10:45:38 145.935
UWE-3 28 Mar 10:38:22 10:42:34 44° 98° (E) 10:46:53 435.000/436.395/437.385
COMPASS 1 28 Mar 10:39:50 10:43:57 48° 287° (WNW) 10:48:02 437.405
CUBEBUG 2 28 Mar 10:40:40 10:45:00 56° 100° (E) 10:49:28 437.445
VELOX 1 28 Mar 10:44:29 10:46:36 14° 89° (E) 10:48:54 145.980
AISAT 28 Mar 10:48:16 10:50:48 15° 90° (E) 10:53:30 437.250
QB50P1 28 Mar 10:48:17 10:52:20 48° 72° (ENE) 10:56:25 145.935-145.965
ZACube-1 28 Mar 10:49:47 10:54:01 47° 99° (E) 10:58:20 437.345
DUCHIFAT 1 28 Mar 10:50:52 10:54:55 50° 73° (ENE) 10:59:01 145.980
BEESAT 2 28 Mar 10:51:52 10:55:43 40° 118° (ESE) 10:59:38 435.950
QB50P2 28 Mar 11:02:30 11:06:43 70° 74° (ENE) 11:10:56 145.880/145.840
CANX-2 28 Mar 11:06:52 11:09:52 18° 295° (WNW) 11:12:46 2200.000
ESTCUBE 1 28 Mar 11:13:39 11:16:09 15° 89° (E) 11:18:51 437.505/2401.250
50 SAT 28 Mar 11:15:45 11:19:17 29° 95° (E) 11:22:52 437.505
CUTE 1.7 + AOD 2 28 Mar 11:21:28 11:23:55 15° 297° (WNW) 11:26:13 437.475
BEESAT 3 28 Mar 11:30:08 11:34:14 72° 306° (NW) 11:38:23 437.485
VERMONT LUNAR 28 Mar 11:31:26 11:33:15 14° 207° (SSW) 11:35:00 437.305
POPSAT HIP 1 28 Mar 11:31:40 11:35:50 57° 259° (W) 11:40:00 437.405
UNISAT 6 28 Mar 11:31:56 11:35:44 31° 265° (W) 11:39:34 437.425
UKube-1 28 Mar 11:35:27 11:39:47 82° 285° (WNW) 11:44:06 .
DELFI C3 28 Mar 11:36:21 11:40:07 35° 290° (WNW) 11:43:51 145.870
BUGSAT 1 28 Mar 11:37:19 11:41:28 68° 258° (WSW) 11:45:36 437.445
HO-68 28 Mar 11:37:45 11:43:42 28° 302° (WNW) 11:49:29 435.675
NANOSAT C BR1 28 Mar 11:42:59 11:47:01 43° 262° (W) 11:51:02 145.865
TIGRISAT 28 Mar 11:43:09 11:46:40 24° 266° (W) 11:50:10 435.000
DX 1 28 Mar 11:44:05 11:48:23 63° 287° (WNW) 11:52:39 434.975-435.025
POLYITAN 1 28 Mar 11:46:12 11:50:10 38° 262° (W) 11:54:08 437.675
HUMSAT D 28 Mar 11:50:28 11:54:43 75° 285° (WNW) 11:58:59 437.325/437.525
AAUSAT CUBESAT 2 28 Mar 11:51:21 11:52:56 12° 298° (WNW) 11:54:18 437.432
AIST 2 28 Mar 11:56:27 12:00:40 66° 122° (ESE) 12:04:57 435.215
CINEMA 3 28 Mar 11:58:58 12:01:30 15° 296° (WNW) 12:03:54 145.822/145.860
PHONESAT 2.4 28 Mar 12:01:28 12:04:02 19° 204° (SSW) 12:06:34 2401.200-2431.200
Oscar 11 28 Mar 12:06:44 12:09:34 17° 296° (WNW) 12:12:16 145.826/435.025
FUNcube-1 28 Mar 12:14:12 12:17:46 24° 292° (WNW) 12:21:18 145.935
ANTELSAT 28 Mar 12:15:03 12:16:46 12° 273° (W) 12:18:15 437.575/2403.000
UWE-3 28 Mar 12:15:38 12:18:53 20° 294° (WNW) 12:22:03 435.000/436.395/437.385
CUBEBUG 2 28 Mar 12:18:34 12:21:22 16° 295° (WNW) 12:24:03 437.445
VELOX 1 28 Mar 12:19:18 12:23:40 61° 287° (WNW) 12:28:00 145.980
CUBEBUG 1 28 Mar 12:22:47 12:27:07 69° 102° (ESE) 12:31:25 437.445
AISAT 28 Mar 12:23:29 12:27:49 54° 288° (WNW) 12:32:06 437.250
QB50P1 28 Mar 12:25:51 12:28:32 16° 270° (W) 12:31:06 145.935-145.965
ZACube-1 28 Mar 12:27:01 12:30:06 19° 294° (WNW) 12:33:07 437.345
DUCHIFAT 1 28 Mar 12:28:32 12:31:07 15° 270° (W) 12:33:32 145.980
BEESAT 2 28 Mar 12:30:29 12:34:00 26° 317° (NW) 12:37:31 435.950
TISAT 1 28 Mar 12:31:12 12:34:09 19° 92° (E) 12:37:12 437.305
SPROUT 28 Mar 12:36:50 12:40:25 26° 94° (E) 12:44:03 437.525
QB50P2 28 Mar 12:41:56 12:43:11 11° 273° (W) 12:44:13 145.880/145.840
ESTCUBE 1 28 Mar 12:49:02 12:53:30 58° 287° (WNW) 12:57:54 437.505/2401.250
50 SAT 28 Mar 12:50:49 12:54:07 24° 292° (WNW) 12:57:22 437.505
Oscar 19 28 Mar 12:51:05 12:55:39 35° 68° (ENE) 13:00:18 437.125/150
Gurwin Techsat 1B 28 Mar 13:00:01 13:02:13 13° 57° (ENE) 13:04:39 435.225
YUBILEINY 28 Mar 13:03:08 13:10:00 28° 82° (E) 13:17:10 435.215
BEESAT 3 28 Mar 13:11:06 13:13:05 13° 327° (NNW) 13:14:58 437.485
O/OREOS (USA 219) 28 Mar 13:16:32 13:19:54 20° 52° (NE) 13:23:19 437.305
ITUPSAT 1 28 Mar 13:34:37 13:37:21 15° 89° (E) 13:40:17 437.325
AIST 2 28 Mar 13:36:34 13:39:43 19° 321° (NW) 13:42:50 435.215
ITAMSAT 1 28 Mar 13:53:45 13:58:39 44° 69° (ENE) 14:03:37 435.822/435.867
AO-7 28 Mar 13:56:12 14:01:17 19° 47° (NE) 14:06:42 29.400- 29.500
CUBEBUG 1 28 Mar 14:00:52 14:03:00 13° 298° (WNW) 14:04:58 437.445
TISAT 1 28 Mar 14:06:13 14:10:09 39° 289° (WNW) 14:14:04 437.305
PCSat 28 Mar 14:10:46 14:13:40 15° 105° (ESE) 14:16:50 145.827
SPROUT 28 Mar 14:12:46 14:16:32 30° 291° (WNW) 14:20:14 437.525
SWISSCUBE 28 Mar 14:21:38 14:26:18 48° 99° (E) 14:30:56 437.505
BEESAT 28 Mar 14:24:49 14:29:28 48° 99° (E) 14:34:05 436.000
HORYU 2 28 Mar 14:27:34 14:30:16 16° 63° (ENE) 14:33:06 437.375
Oscar 19 28 Mar 14:30:30 14:35:02 31° 265° (W) 14:39:34 437.125/150
Gurwin Techsat 1B 28 Mar 14:36:08 14:41:27 82° 75° (ENE) 14:46:49 435.225
KKS-1 28 Mar 14:50:51 14:53:44 17° 91° (E) 14:56:46 437.445
JAS-2 28 Mar 14:55:07 15:00:33 25° 58° (ENE) 15:06:33 435.910
O/OREOS (USA 219) 28 Mar 14:55:14 14:59:40 50° 251° (WSW) 15:04:02 437.305
AIST 1 28 Mar 14:57:00 15:00:30 24° 71° (ENE) 15:04:02
YUBILEINY 28 Mar 14:57:24 15:06:10 69° 282° (WNW) 15:15:01 435.215
ITUPSAT 1 28 Mar 15:11:00 15:15:46 62° 287° (WNW) 15:20:29 437.325
STARS 28 Mar 15:24:45 15:28:21 25° 94° (E) 15:32:02 437.465
ITAMSAT 1 28 Mar 15:34:02 15:38:22 25° 267° (W) 15:42:38 435.822/435.867
AO-7 28 Mar 15:44:36 15:52:50 71° 68° (ENE) 16:01:06 29.400- 29.500
PCSat 28 Mar 15:51:03 15:56:29 81° 302° (WNW) 16:01:58 145.827
SWISSCUBE 28 Mar 16:00:15 16:03:52 21° 296° (WNW) 16:07:22 437.505
HORYU 2 28 Mar 16:02:10 16:06:31 57° 259° (W) 16:10:55 437.375
BEESAT 28 Mar 16:03:23 16:07:01 21° 296° (WNW) 16:10:32 436.000
Gurwin Techsat 1B 28 Mar 16:19:29 16:22:13 13° 274° (W) 16:24:38 435.225
KKS-1 28 Mar 16:26:25 16:30:43 49° 288° (WNW) 16:34:59 437.445
AIST 1 28 Mar 16:34:24 16:38:14 30° 269° (W) 16:41:57
JAS-2 28 Mar 16:37:55 16:44:49 78° 258° (WSW) 16:52:30 435.910
YUBILEINY 28 Mar 16:59:59 17:05:08 16° 307° (NW) 17:09:50 435.215
STARS 28 Mar 17:00:55 17:04:54 33° 291° (WNW) 17:08:49 437.465
RS-15 28 Mar 17:24:54 17:26:23 11° 96° (E) 17:29:01 29.354- 29.394
AUBIESAT-1 28 Mar 17:36:28 17:39:44 18° 95° (E) 17:43:07 437.475
PCSat 28 Mar 17:37:10 17:40:50 18° 324° (NW) 17:44:23 145.827
AO-7 28 Mar 17:39:30 17:46:24 27° 268° (W) 17:53:05 29.400- 29.500
Cubesat XI-IV 28 Mar 17:47:04 17:52:05 42° 69° (ENE) 17:57:08 437.490
CUTE-I 28 Mar 17:47:11 17:52:10 41° 68° (ENE) 17:57:12 437.470
MOZHAYETS 4 28 Mar 17:54:29 17:59:10 87° 104° (ESE) 18:03:49
M-CUBED/EXP-1 PRIME 28 Mar 17:59:20 18:03:44 34° 100° (E) 18:08:06 437.505
BEESAT 3 28 Mar 18:10:40 18:13:25 17° 38° (NE) 18:16:14 437.485
JAS-2 28 Mar 18:27:31 18:31:25 15° 280° (W) 18:35:02 435.910
HO-68 28 Mar 18:36:50 18:39:41 13° 48° (NE) 18:42:54 435.675
AIST 2 28 Mar 18:39:42 18:41:45 13° 33° (NNE) 18:43:55 435.215
SO-50 28 Mar 19:07:53 19:12:03 35° 116° (ESE) 19:16:25 436.795
BEESAT 2 28 Mar 19:09:49 19:13:47 42° 49° (NE) 19:17:43 435.950
AUBIESAT-1 28 Mar 19:10:09 19:14:55 58° 292° (WNW) 19:19:36 437.475
PRISM 28 Mar 19:13:17 19:17:08 34° 97° (E) 19:20:57 437.425
GONETS M04 28 Mar 19:15:29 19:23:21 42° 87° (E) 19:31:25
BRITE-PL 28 Mar 19:19:56 19:22:44 17° 65° (ENE) 19:25:36 437.365/2234.400
RS-15 28 Mar 19:26:02 19:36:31 58° 115° (ESE) 19:47:15 29.354- 29.394
Cubesat XI-IV 28 Mar 19:27:44 19:32:21 28° 266° (W) 19:36:53 437.490
CUTE-I 28 Mar 19:27:47 19:32:25 28° 266° (W) 19:36:58 437.470
MOZHAYETS 4 28 Mar 19:33:52 19:35:47 12° 300° (WNW) 19:37:28
M-CUBED/EXP-1 PRIME 28 Mar 19:34:12 19:38:32 33° 298° (WNW) 19:42:48 437.505
SEEDS 28 Mar 19:37:07 19:37:47 10° 61° (ENE) 19:38:39 437.485
CUBESAT XI-V 28 Mar 19:39:11 19:43:52 85° 104° (ESE) 19:48:29 437.345
BEESAT 3 28 Mar 19:47:51 19:51:58 71° 238° (WSW) 19:56:01 437.485
COMPASS 1 28 Mar 19:59:01 20:01:18 15° 64° (ENE) 20:03:45 437.405
DOVE 4 28 Mar 20:03:04 20:06:01 19° 66° (ENE) 20:09:00 437.250
STRAND 1 28 Mar 20:06:51 20:12:01 79° 103° (ESE) 20:17:07 437.568
GOMX 1 28 Mar 20:09:30 20:13:26 32° 70° (ENE) 20:17:15 467.674
AIST 2 28 Mar 20:16:54 20:21:11 71° 53° (NE) 20:25:23 435.215
HO-68 28 Mar 20:19:07 20:26:05 58° 68° (ENE) 20:33:07 435.675
CANX-2 28 Mar 20:24:37 20:28:35 41° 71° (ENE) 20:32:37 2200.000
CUTE 1.7 + AOD 2 28 Mar 20:38:31 20:42:37 52° 73° (ENE) 20:46:48 437.475
SO-50 28 Mar 20:48:18 20:52:37 35° 316° (NW) 20:57:02 436.795
BEESAT 2 28 Mar 20:48:31 20:51:42 21° 246° (WSW) 20:54:45 435.950
PRISM 28 Mar 20:49:09 20:52:27 22° 294° (WNW) 20:55:40 437.425
DELFI C3 28 Mar 20:51:47 20:54:23 17° 65° (ENE) 20:57:07 145.870
BRITE-PL 28 Mar 20:56:20 21:01:00 55° 260° (W) 21:05:21 437.365/2234.400
UKube-1 28 Mar 20:58:49 21:00:26 12° 61° (ENE) 21:02:14 .
AAUSAT CUBESAT 2 28 Mar 21:05:53 21:10:00 63° 75° (ENE) 21:14:11 437.432
DX 1 28 Mar 21:07:01 21:09:32 16° 63° (ENE) 21:12:12 434.975-435.025
SEEDS 28 Mar 21:08:46 21:12:59 86° 257° (WSW) 21:17:16 437.485
GONETS M04 28 Mar 21:11:53 21:20:11 46° 288° (WNW) 21:28:31
CUBESAT XI-V 28 Mar 21:18:45 21:20:42 12° 300° (WNW) 21:22:26 437.345
CINEMA 3 28 Mar 21:24:00 21:28:10 68° 75° (ENE) 21:32:18 145.822/145.860
Oscar 11 28 Mar 21:25:42 21:29:51 50° 73° (ENE) 21:34:05 145.826/435.025
COMPASS 1 28 Mar 21:32:28 21:36:36 57° 261° (W) 21:40:45 437.405
FUNcube-1 28 Mar 21:35:21 21:39:00 32° 70° (ENE) 21:42:44 145.935
UWE-3 28 Mar 21:37:28 21:41:21 41° 72° (ENE) 21:45:18 435.000/436.395/437.385
CUSAT 1 28 Mar 21:38:31 21:41:23 77° 280° (W) 21:43:59 437.405
RS-15 28 Mar 21:38:43 21:49:15 50° 320° (NW) 22:00:02 29.354- 29.394
DOVE 4 28 Mar 21:39:26 21:43:35 42° 262° (W) 21:47:36 437.250
CUBEBUG 2 28 Mar 21:40:49 21:44:52 55° 74° (ENE) 21:48:58 437.445
VELOX 1 28 Mar 21:43:52 21:46:35 17° 63° (ENE) 21:49:26 145.980
STRAND 1 28 Mar 21:47:38 21:50:38 15° 300° (WNW) 21:53:26 437.568
ZACube-1 28 Mar 21:47:39 21:51:33 43° 72° (ENE) 21:55:33 437.345
GOMX 1 28 Mar 21:47:54 21:51:39 25° 266° (W) 21:55:11 467.674
AISAT 28 Mar 21:47:54 21:50:55 19° 64° (ENE) 21:54:02 437.250
AIST 2 28 Mar 21:57:16 21:59:17 13° 250° (WSW) 22:01:04 435.215
CANX-2 28 Mar 22:01:41 22:04:45 19° 269° (W) 22:07:44 2200.000
50 SAT 28 Mar 22:03:57 22:06:58 22° 67° (ENE) 22:10:05 437.505
HO-68 28 Mar 22:08:05 22:14:15 30° 267° (W) 22:20:18 435.675
ESTCUBE 1 28 Mar 22:14:59 22:18:02 18° 64° (ENE) 22:21:13 437.505/2401.250
CUTE 1.7 + AOD 2 28 Mar 22:16:27 22:18:57 15° 271° (W) 22:21:17 437.475
DANDE 28 Mar 22:24:12 22:26:42 23° 285° (WNW) 22:28:56 436.750
DELFI C3 28 Mar 22:25:21 22:29:16 45° 262° (W) 22:33:13 145.870
ANTELSAT 28 Mar 22:27:05 22:29:08 13° 88° (E) 22:31:27 437.575/2403.000
ISS 28 Mar 22:31:16 22:32:46 13° 133° (SE) 22:34:22 145.825
UKube-1 28 Mar 22:31:42 22:36:02 78° 256° (WSW) 22:40:25 .
SO-50 28 Mar 22:34:18 22:34:41 10° 339° (NNW) 22:34:56 436.795
DX 1 28 Mar 22:41:04 22:45:23 59° 259° (W) 22:49:43 434.975-435.025
HUMSAT D 28 Mar 22:43:52 22:47:58 87° 256° (WSW) 22:52:07 437.325/437.525
AAUSAT CUBESAT 2 28 Mar 22:44:24 22:46:10 12° 273° (W) 22:47:42 437.432
QB50P2 28 Mar 22:49:32 22:49:49 10° 86° (E) 22:50:22 145.880/145.840
PCSat 28 Mar 22:54:44 22:58:55 22° 41° (NE) 23:03:11 145.827
Oscar 11 28 Mar 23:03:40 23:06:24 16° 271° (W) 23:09:00 145.826/435.025
CINEMA 3 28 Mar 23:04:49 23:05:57 11° 273° (W) 23:06:51 145.822/145.860
YUBILEINY 28 Mar 23:10:57 23:15:20 15° 52° (NE) 23:20:15 435.215
FUNcube-1 28 Mar 23:12:07 23:15:27 23° 267° (W) 23:18:43 145.935
UWE-3 28 Mar 23:15:20 23:18:10 17° 269° (W) 23:20:54 435.000/436.395/437.385
POPSAT HIP 1 28 Mar 23:16:04 23:19:10 20° 92° (E) 23:22:22 437.405
VELOX 1 28 Mar 23:18:24 23:22:47 56° 260° (W) 23:27:09 145.980
BUGSAT 1 28 Mar 23:19:26 23:21:41 15° 90° (E) 23:24:05 437.445
CUBEBUG 2 28 Mar 23:19:57 23:22:02 13° 272° (W) 23:23:56 437.445
CUBEBUG 1 28 Mar 23:20:17 23:24:40 70° 75° (ENE) 23:29:04 437.445
UNISAT 6 28 Mar 23:21:26 23:25:50 46° 99° (E) 23:30:19 437.425
AISAT 28 Mar 23:22:53 23:27:12 49° 261° (W) 23:31:32 437.250
TISAT 1 28 Mar 23:25:27 23:28:22 19° 65° (ENE) 23:31:23 437.305
ZACube-1 28 Mar 23:25:30 23:28:14 17° 270° (W) 23:30:52 437.345
NANOSAT C BR1 28 Mar 23:26:38 23:30:10 26° 94° (E) 23:33:45 145.865
POLYITAN 1 28 Mar 23:30:10 23:33:51 29° 95° (E) 23:37:36 437.675
TIGRISAT 28 Mar 23:31:56 23:36:25 58° 100° (E) 23:41:01 435.000
SPROUT 28 Mar 23:32:47 23:36:18 26° 68° (ENE) 23:39:54 437.525
50 SAT 28 Mar 23:38:17 23:41:46 30° 264° (W) 23:45:16 437.505
ESTCUBE 1 28 Mar 23:50:07 23:54:34 52° 260° (W) 23:59:02 437.505/2401.250
RS-15 28 Mar 23:56:12 00:05:10 27° 353° (N) 00:14:21 29.354- 29.394
ANTELSAT 29 Mar 00:01:54 00:06:27 69° 286° (WNW) 00:11:05 437.575/2403.000
ISS 29 Mar 00:05:31 00:08:47 89° 349° (N) 00:12:03 145.825
QB50P1 29 Mar 00:07:28 00:11:43 74° 103° (ESE) 00:15:56 145.935-145.965
DUCHIFAT 1 29 Mar 00:09:42 00:13:56 76° 102° (ESE) 00:18:09 145.980
QB50P2 29 Mar 00:22:06 00:26:21 76° 286° (WNW) 00:30:35 145.880/145.840
PCSat 29 Mar 00:37:31 00:42:57 73° 242° (WSW) 00:48:20 145.827
ITUPSAT 1 29 Mar 00:42:48 00:46:29 23° 65° (ENE) 00:50:17 437.325
POPSAT HIP 1 29 Mar 00:51:18 00:55:13 38° 290° (WNW) 00:59:08 437.405
BUGSAT 1 29 Mar 00:53:37 00:57:30 46° 288° (WNW) 01:01:22 437.445
UNISAT 6 29 Mar 00:58:56 01:02:22 21° 295° (WNW) 01:05:43 437.425
CUBEBUG 1 29 Mar 00:59:51 01:01:37 12° 273° (W) 01:03:08 437.445
TISAT 1 29 Mar 00:59:52 01:03:55 43° 262° (W) 01:07:56 437.305
NANOSAT C BR1 29 Mar 01:02:21 01:06:03 29° 291° (WNW) 01:09:41 145.865
YUBILEINY 29 Mar 01:05:37 01:14:25 67° 77° (ENE) 01:23:09 435.215
POLYITAN 1 29 Mar 01:06:08 01:09:44 27° 292° (WNW) 01:13:17 437.675
SPROUT 29 Mar 01:08:29 01:12:19 31° 264° (W) 01:16:08 437.525
TIGRISAT 29 Mar 01:09:50 01:12:49 17° 296° (WNW) 01:15:41 435.000
SWISSCUBE 29 Mar 01:29:39 01:34:25 67° 73° (ENE) 01:39:13 437.505
BEESAT 29 Mar 01:32:44 01:37:29 66° 73° (ENE) 01:42:15 436.000
ISS 29 Mar 01:42:42 01:45:30 26° 348° (NNW) 01:48:18 145.825
QB50P1 29 Mar 01:45:20 01:47:05 12° 298° (WNW) 01:48:39 145.935-145.965
DUCHIFAT 1 29 Mar 01:47:40 01:49:15 12° 298° (WNW) 01:50:38 145.980
KKS-1 29 Mar 01:50:48 01:54:01 20° 65° (ENE) 01:57:19 437.445
SO-50 29 Mar 01:58:10 02:00:31 13° 28° (NNE) 02:03:00 436.795
ITAMSAT 1 29 Mar 02:06:43 02:08:59 13° 87° (E) 02:11:31 435.822/435.867
RS-15 29 Mar 02:11:58 02:21:57 35° 26° (NNE) 02:32:27 29.354- 29.394
ITUPSAT 1 29 Mar 02:19:31 02:24:09 45° 262° (W) 02:28:47 437.325
STARS 29 Mar 02:23:25 02:27:06 27° 67° (ENE) 02:30:51 437.465
Oscar 19 29 Mar 02:39:31 02:44:43 81° 105° (ESE) 02:49:55 437.125/150
Gurwin Techsat 1B 29 Mar 02:51:10 02:55:43 29° 94° (E) 03:00:20 435.225
YUBILEINY 29 Mar 03:03:23 03:10:39 29° 277° (W) 03:17:37 435.215
SWISSCUBE 29 Mar 03:10:06 03:12:50 14° 272° (W) 03:15:21 437.505
BEESAT 29 Mar 03:13:08 03:15:53 15° 272° (W) 03:18:25 436.000
ISS 29 Mar 03:19:55 03:22:36 23° 8° (N) 03:25:16 145.825
MOZHAYETS 4 29 Mar 03:24:00 03:25:46 12° 61° (ENE) 03:27:46
KKS-1 29 Mar 03:26:09 03:30:24 43° 262° (W) 03:34:39 437.445
AIST 1 29 Mar 03:29:48 03:31:54 14° 85° (E) 03:34:12
O/OREOS (USA 219) 29 Mar 03:31:40 03:34:13 15° 100° (E) 03:36:58 437.305
SO-50 29 Mar 03:37:24 03:42:15 52° 50° (NE) 03:47:05 436.795
ITAMSAT 1 29 Mar 03:44:02 03:49:14 81° 287° (WNW) 03:54:25 435.822/435.867
AO-7 29 Mar 03:45:46 03:51:14 20° 88° (E) 03:57:05 29.400- 29.500
JAS-2 29 Mar 03:47:37 03:52:30 19° 83° (E) 03:57:32 435.910
HORYU 2 29 Mar 03:52:19 03:55:58 24° 94° (E) 03:59:41 437.375
STARS 29 Mar 03:59:38 04:03:31 30° 265° (W) 04:07:23 437.465
Oscar 19 29 Mar 04:20:28 04:23:29 15° 300° (WNW) 04:26:18 437.125/150
RS-15 29 Mar 04:24:47 04:36:18 84° 55° (NE) 04:48:20 29.354- 29.394
AUBIESAT-1 29 Mar 04:25:57 04:29:23 27° 61° (ENE) 04:33:08 437.475
Gurwin Techsat 1B 29 Mar 04:30:53 04:35:50 40° 292° (WNW) 04:40:44 435.225
M-CUBED/EXP-1 PRIME 29 Mar 04:49:28 04:53:22 50° 66° (ENE) 04:57:41 437.505
ISS 29 Mar 04:56:14 04:59:27 60° 27° (NNE) 05:02:39 145.825
MOZHAYETS 4 29 Mar 04:57:46 05:02:24 85° 258° (WSW) 05:07:05
AIST 1 29 Mar 05:04:47 05:09:07 57° 281° (WNW) 05:13:29
O/OREOS (USA 219) 29 Mar 05:08:39 05:13:12 60° 297° (WNW) 05:17:46 437.305
CUBESAT XI-V 29 Mar 05:09:49 05:11:45 13° 61° (ENE) 05:13:54 437.345
SO-50 29 Mar 05:18:34 05:22:32 24° 247° (WSW) 05:26:22 436.795
GONETS M04 29 Mar 05:23:33 05:30:05 23° 60° (ENE) 05:36:55
ITAMSAT 1 29 Mar 05:25:49 05:28:01 12° 303° (WNW) 05:29:58 435.822/435.867
HORYU 2 29 Mar 05:28:35 05:32:43 36° 291° (WNW) 05:36:49 437.375
JAS-2 29 Mar 05:30:53 05:38:47 89° 104° (ESE) 05:46:02 435.910
AO-7 29 Mar 05:36:54 05:45:16 90° 297° (WNW) 05:53:35 29.400- 29.500
STRAND 1 29 Mar 05:47:13 05:50:42 19° 62° (ENE) 05:54:22 437.568
VERMONT LUNAR 29 Mar 05:51:06 05:53:20 17° 156° (SSE) 05:55:37 437.305
AUBIESAT-1 29 Mar 06:00:29 06:04:08 31° 260° (W) 06:08:02 437.475
CUTE-I 29 Mar 06:04:12 06:06:45 14° 87° (E) 06:09:34 437.470
Cubesat XI-IV 29 Mar 06:04:14 06:06:51 14° 87° (E) 06:09:44 437.490
PRISM 29 Mar 06:05:07 06:08:53 33° 69° (ENE) 06:12:42 437.425
M-CUBED/EXP-1 PRIME 29 Mar 06:26:06 06:28:43 16° 267° (W) 06:31:18 437.505
PHONESAT 2.4 29 Mar 06:29:07 06:31:17 16° 154° (SSE) 06:33:30 2401.200-2431.200
ISS 29 Mar 06:33:10 06:35:37 20° 224° (SW) 06:38:00 145.825
RS-15 29 Mar 06:38:16 06:47:45 29° 255° (WSW) 06:57:07 29.354- 29.394
CUBESAT XI-V 29 Mar 06:43:53 06:48:37 84° 259° (W) 06:53:22 437.345
JAS-2 29 Mar 07:17:03 07:22:52 23° 304° (NW) 07:28:14 435.910
DANDE 29 Mar 07:17:23 07:19:48 16° 72° (ENE) 07:22:46 436.750
GONETS M04 29 Mar 07:19:22 07:28:15 85° 263° (W) 07:37:06
STRAND 1 29 Mar 07:24:24 07:29:30 62° 259° (W) 07:34:37 437.568
VERMONT LUNAR 29 Mar 07:27:27 07:30:35 38° 172° (S) 07:33:44 437.305
AO-7 29 Mar 07:30:53 07:37:10 24° 309° (NW) 07:43:13 29.400- 29.500
PRISM 29 Mar 07:41:00 07:44:27 23° 266° (W) 07:47:50 437.425
CUTE-I 29 Mar 07:42:14 07:47:35 80° 286° (WNW) 07:52:54 437.470
Cubesat XI-IV 29 Mar 07:42:21 07:47:42 79° 286° (WNW) 07:53:01 437.490
PHONESAT 2.4 29 Mar 08:05:49 08:09:08 37° 169° (S) 08:12:26 2401.200-2431.200
CUSAT 1 29 Mar 08:10:51 08:14:58 76° 79° (E) 08:20:31 437.405
